Вернуться в каталог

DELTA 1 DEB

АктивенPO
NORAD 42645·DEBRIS·🇺🇸 United States

Запущен Jun 12, 1975 с Vandenberg Space Force Base

Loading…

Ближайшие Пролёты (ближайшие 24 часа)

TLE

СвежийSource: Space-Track

Эпоха: Sep 14, 2026, 22:08 UTC

1 42645U 75052ME  26257.92253652 -.00000050  00000-0 -42973-4 0  9992
2 42645  99.7146 143.9380 0269971   2.2805  55.0433 12.90068853474476

Отслеживайте DELTA 1 DEB в реальном времени с AllMySat

Download on the App Store